Retour au catalogue

IRS B3

ActifScienceSSO
NORAD 23827·PAYLOAD·🇮🇳 India

Lancé Mar 21, 1996 depuis Satish Dhawan Space Centre

Loading…

Prochains Passages (prochaines 24 heures)

TLE

FraisSource: Space-Track

Époque: Sep 14, 2026, 21:49 UTC

1 23827U 96017A   26257.90948802  .00000064  00000-0  48271-4 0  9993
2 23827  99.0255 283.7640 0004076  53.8262 306.3292 14.23756737582631

Suivez IRS B3 en temps réel avec AllMySat

Download on the App Store